Weather in Sysoyevo

Russia / Mari El Republic     57°00′21″N   49°38′28″E
temp.,
°C
wind,
m/s
gust,
m/s
humid.,
%
clouds,
%
prec.,
mm/h
press.,
hPa
HPBL,
m
3 march, wed
wed300:00−3w489685 0.1 998272
03:00−6w359790 0.1 99892
06:00−4w3897100 0.4 998240
09:00−4nw5995100 0.6 999577
12:00−4nw71089100 0.8 1000651
15:00−5nw71087100 0.9 1001787
18:00−7wnw51191100 0.1 1002546
21:00−7w5119297 0.1 1003435
4 march, thu
thu400:00−10wsw499493 0.1 1001164
03:00−8sw5109596 0.4 999376
06:00−6sw61293100 0.5 996378
09:00−3sw71293100 0.8 994773
12:00−2sw71195100 0.9 990820
15:00−1wsw71394100 4.1 989903
18:00−4w8168468 1.5 990565
21:00−5w6139364 1.6 994399
5 march, fri
fri500:00−8wnw5119495 0.0 996320
03:00−12wnw379595 0.0 999146
06:00−16wnw349651 0.0 100154
09:00−15nw479225 0.0 1002246
12:00−12nw47880 0.0 1003445
15:00−12wnw588923 0.0 1005524
18:00−14wnw349449 0.0 100764
21:00−15w349626 0.0 100945
6 march, sat
sat600:00−14wsw349758 0.1 101058
03:00−14wsw469669 0.1 1011100
06:00−16wsw349773 0.0 101167
09:00−13wsw359578 0.1 1011198
12:00−9wsw349097 0.2 1010407
15:00−8wnw238999 0.3 1009435
18:00−12nw359598 0.1 100996
21:00−15nnw369699 0.3 1010123
7 march, sun
sun700:00−20nw339740 0.0 101022
03:00−21w349920 0.0 101026
06:00−22wsw3410052 0.0 101033
09:00−18sw469673 0.1 1009207
12:00−13ssw589386 0.0 1007375
15:00−11s7129193 0.0 1004549
18:00−11s81591100 0.3 1002794
21:00−9s81492100 0.7 998752